This is the latest recevied weather packets stored in our database for station/object E24QND-2. If no packets are shown the sender has not sent any weather packets the latest 10 day(s).
| Time | Temp. | Humidity | Pressure | Rain* | Wind** | Luminosity | Snow |
|---|---|---|---|---|---|---|---|
| 1788235410 | 31.11° C | 99% | - | - | - | 0 W/m² | - |
| 1788234185 | 30° C | 99% | - | - | - | 0 W/m² | - |
| 1788232960 | 30° C | 1% | - | - | - | 0 W/m² | - |
| 1788231736 | 29.44° C | 1% | - | - | - | 0 W/m² | - |
| 1788230512 | 28.33° C | 1% | - | - | - | 0 W/m² | - |
| 1788229287 | 27.78° C | 70% | - | - | - | 0 W/m² | - |
| 1788228062 | 27.22° C | 99% | - | - | - | 0 W/m² | - |
| 1788226844 | 27.22° C | 99% | - | - | - | 0 W/m² | - |
| 1788225613 | 26.11° C | 99% | - | - | - | 0 W/m² | - |
| 1788224390 | 26.11° C | 99% | - | - | - | 0 W/m² | - |
| 1788223164 | 26.11° C | 99% | - | - | - | 0 W/m² | - |
| 1788221942 | 25.56° C | 1% | - | - | - | 0 W/m² | - |
| 1788220715 | 25.56° C | 98% | - | - | - | 0 W/m² | - |
| 1788219490 | 25.56° C | 99% | - | - | - | 0 W/m² | - |
| 1788218266 | 25° C | 1% | - | - | - | 0 W/m² | - |
| 1788217041 | 25° C | 99% | - | - | - | 0 W/m² | - |
| 1788215816 | 25.56° C | 99% | - | - | - | 0 W/m² | - |
| 1788214592 | 25.56° C | 99% | - | - | - | 0 W/m² | - |
| 1788213367 | 25.56° C | 1% | - | - | - | 0 W/m² | - |
| 1788212143 | 25.56° C | 99% | - | - | - | 0 W/m² | - |
| 1788210918 | 25° C | 99% | - | - | - | 0 W/m² | - |
| 1788209694 | 25.56° C | 99% | - | - | - | 0 W/m² | - |
| 1788208469 | 25.56° C | 24% | - | - | - | 0 W/m² | - |
| 1788207244 | 25.56° C | 17% | - | - | - | 0 W/m² | - |
| 1788206020 | 25.56° C | 1% | - | - | - | 0 W/m² | - |
* Rain since midnight (hover to see other rain measurements)
** Current wind speed in m/s (hover to see current wind gust speed)